TimeCDT,TemperatureF,Dew PointF,Humidity,Sea Level PressureIn,VisibilityMPH,Wind Direction,Wind SpeedMPH,Gust SpeedMPH,PrecipitationIn,Events,Conditions,WindDirDegrees,DateUTC
12:13 AM,64.4,60.8,88,30.13,10.0,NE,3.5,-,N/A,,Clear,50,2013-08-23 05:13:00
12:33 AM,64.4,60.8,88,30.13,10.0,ENE,3.5,-,N/A,,Clear,60,2013-08-23 05:33:00
12:53 AM,64.4,60.8,88,30.12,10.0,ENE,4.6,-,N/A,,Clear,60,2013-08-23 05:53:00
1:13 AM,64.4,60.8,88,30.12,10.0,Calm,Calm,-,N/A,,Clear,0,2013-08-23 06:13:00
1:33 AM,64.4,60.8,88,30.12,10.0,Calm,Calm,-,N/A,,Clear,0,2013-08-23 06:33:00
1:53 AM,64.4,60.8,88,30.12,10.0,Calm,Calm,-,N/A,,Clear,0,2013-08-23 06:53:00
2:13 AM,62.6,59.0,88,30.12,10.0,Calm,Calm,-,N/A,,Clear,0,2013-08-23 07:13:00
2:33 AM,64.4,60.8,88,30.13,10.0,Calm,Calm,-,N/A,,Clear,0,2013-08-23 07:33:00
2:53 AM,64.4,60.8,88,30.12,10.0,Calm,Calm,-,N/A,,Clear,0,2013-08-23 07:53:00
3:13 AM,62.6,59.0,88,30.12,10.0,Calm,Calm,-,N/A,,Clear,0,2013-08-23 08:13:00
3:33 AM,62.6,59.0,88,30.12,10.0,Calm,Calm,-,N/A,,Clear,0,2013-08-23 08:33:00
3:53 AM,62.6,60.8,94,30.12,10.0,Calm,Calm,-,N/A,,Clear,0,2013-08-23 08:53:00
4:13 AM,62.6,60.8,94,30.12,10.0,Calm,Calm,-,N/A,,Clear,0,2013-08-23 09:13:00
4:33 AM,62.6,60.8,94,30.12,10.0,Calm,Calm,-,N/A,,Clear,0,2013-08-23 09:33:00
4:53 AM,62.6,60.8,94,30.12,10.0,Calm,Calm,-,N/A,,Clear,0,2013-08-23 09:53:00
5:13 AM,62.6,60.8,94,30.11,7.0,Calm,Calm,-,N/A,,Clear,0,2013-08-23 10:13:00
5:33 AM,62.6,59.0,88,30.11,10.0,Calm,Calm,-,N/A,,Clear,0,2013-08-23 10:33:00
5:53 AM,62.6,60.8,94,30.11,10.0,Calm,Calm,-,N/A,,Clear,0,2013-08-23 10:53:00
6:13 AM,62.6,59.0,88,30.11,7.0,Calm,Calm,-,N/A,,Clear,0,2013-08-23 11:13:00
6:33 AM,62.6,60.8,94,30.11,7.0,Calm,Calm,-,N/A,,Clear,0,2013-08-23 11:33:00
6:53 AM,62.6,60.8,94,30.10,7.0,Calm,Calm,-,N/A,,Clear,0,2013-08-23 11:53:00
7:13 AM,64.4,60.8,88,30.10,7.0,Calm,Calm,-,N/A,,Clear,0,2013-08-23 12:13:00
7:33 AM,64.4,60.8,88,30.11,7.0,Calm,Calm,-,N/A,,Clear,0,2013-08-23 12:33:00
7:53 AM,64.4,60.8,88,30.11,7.0,Calm,Calm,-,N/A,,Clear,0,2013-08-23 12:53:00
8:13 AM,64.4,62.6,94,30.11,5.0,Calm,Calm,-,N/A,,Clear,0,2013-08-23 13:13:00
8:33 AM,68.0,64.4,88,30.11,5.0,Calm,Calm,-,N/A,,Clear,0,2013-08-23 13:33:00
8:53 AM,71.6,66.2,83,30.11,5.0,SE,4.6,-,N/A,,Haze,140,2013-08-23 13:53:00
9:13 AM,73.4,66.2,78,30.11,7.0,SE,3.5,-,N/A,,Clear,140,2013-08-23 14:13:00
9:33 AM,75.2,66.2,73,30.10,10.0,SE,8.1,-,N/A,,Clear,140,2013-08-23 14:33:00
9:53 AM,77.0,66.2,69,30.10,10.0,SSE,9.2,-,N/A,,Clear,160,2013-08-23 14:53:00
10:13 AM,77.0,68.0,74,30.10,10.0,SE,8.1,-,N/A,,Clear,140,2013-08-23 15:13:00
10:33 AM,78.8,66.2,65,30.09,10.0,SSE,9.2,-,N/A,,Scattered Clouds,150,2013-08-23 15:33:00
10:53 AM,78.8,68.0,69,30.09,10.0,SE,11.5,-,N/A,,Clear,140,2013-08-23 15:53:00
11:13 AM,80.6,68.0,65,30.09,10.0,SSE,9.2,-,N/A,,Clear,150,2013-08-23 16:13:00
11:33 AM,80.6,68.0,65,30.08,10.0,SSE,12.7,-,N/A,,Clear,150,2013-08-23 16:33:00
11:53 AM,80.6,68.0,65,30.08,10.0,South,9.2,-,N/A,,Clear,170,2013-08-23 16:53:00
12:13 PM,82.4,69.8,66,30.07,10.0,SSE,11.5,-,N/A,,Scattered Clouds,150,2013-08-23 17:13:00
12:33 PM,82.4,69.8,66,30.06,10.0,SE,9.2,-,N/A,,Scattered Clouds,140,2013-08-23 17:33:00
12:53 PM,84.2,69.8,62,30.06,10.0,SSE,11.5,17.3,N/A,,Clear,150,2013-08-23 17:53:00
1:13 PM,84.2,69.8,62,30.05,10.0,SE,10.4,-,N/A,,Scattered Clouds,140,2013-08-23 18:13:00
1:33 PM,86.0,69.8,58,30.05,10.0,SSE,11.5,17.3,N/A,,Scattered Clouds,150,2013-08-23 18:33:00
1:53 PM,86.0,71.6,62,30.05,10.0,SE,10.4,17.3,N/A,,Scattered Clouds,140,2013-08-23 18:53:00
2:13 PM,86.0,71.6,62,30.04,10.0,SE,10.4,-,N/A,,Scattered Clouds,140,2013-08-23 19:13:00
2:33 PM,86.0,71.6,62,30.03,10.0,SSE,10.4,-,N/A,,Scattered Clouds,150,2013-08-23 19:33:00
2:53 PM,86.0,71.6,62,30.03,10.0,SSE,10.4,18.4,N/A,,Scattered Clouds,160,2013-08-23 19:53:00
3:13 PM,86.0,71.6,62,30.02,10.0,SE,11.5,-,N/A,,Scattered Clouds,140,2013-08-23 20:13:00
3:33 PM,86.0,69.8,58,30.02,10.0,SSE,10.4,18.4,N/A,,Mostly Cloudy,150,2013-08-23 20:33:00
3:53 PM,86.0,69.8,58,30.02,10.0,SSE,10.4,-,N/A,,Scattered Clouds,160,2013-08-23 20:53:00
4:13 PM,86.0,69.8,58,30.02,10.0,SSE,10.4,-,N/A,,Scattered Clouds,150,2013-08-23 21:13:00
4:33 PM,84.2,69.8,62,30.02,10.0,South,8.1,-,N/A,,Mostly Cloudy,170,2013-08-23 21:33:00
4:53 PM,86.0,69.8,58,30.01,10.0,SSE,12.7,-,N/A,,Scattered Clouds,160,2013-08-23 21:53:00
5:13 PM,86.0,71.6,62,30.01,10.0,SSE,9.2,-,N/A,,Scattered Clouds,150,2013-08-23 22:13:00
5:33 PM,86.0,71.6,62,30.01,10.0,SSE,6.9,-,N/A,,Mostly Cloudy,150,2013-08-23 22:33:00
5:53 PM,86.0,69.8,58,30.01,10.0,SSE,10.4,16.1,N/A,,Mostly Cloudy,150,2013-08-23 22:53:00
6:13 PM,84.2,71.6,66,30.00,10.0,SSE,9.2,-,N/A,,Mostly Cloudy,160,2013-08-23 23:13:00
6:33 PM,84.2,69.8,62,30.00,10.0,South,8.1,-,N/A,,Scattered Clouds,170,2013-08-23 23:33:00
6:53 PM,82.4,69.8,66,30.00,10.0,SSE,8.1,-,N/A,,Scattered Clouds,160,2013-08-23 23:53:00
7:13 PM,82.4,69.8,66,30.00,10.0,South,8.1,-,N/A,,Scattered Clouds,170,2013-08-24 00:13:00
7:33 PM,80.6,68.0,65,29.99,10.0,SSE,6.9,-,N/A,,Scattered Clouds,160,2013-08-24 00:33:00
7:53 PM,78.8,68.0,69,29.99,10.0,SSE,5.8,-,N/A,,Scattered Clouds,160,2013-08-24 00:53:00
8:13 PM,78.8,68.0,69,29.99,10.0,SSE,4.6,-,N/A,,Scattered Clouds,150,2013-08-24 01:13:00
8:33 PM,77.0,68.0,74,29.99,10.0,SSE,5.8,-,N/A,,Scattered Clouds,150,2013-08-24 01:33:00
8:53 PM,77.0,68.0,74,30.00,10.0,SSE,4.6,-,N/A,,Scattered Clouds,150,2013-08-24 01:53:00
9:13 PM,77.0,68.0,74,30.01,10.0,SSE,3.5,-,N/A,,Clear,150,2013-08-24 02:13:00
9:33 PM,75.2,69.8,83,30.01,10.0,SE,3.5,-,N/A,,Mostly Cloudy,140,2013-08-24 02:33:00
9:53 PM,75.2,68.0,78,30.01,10.0,SE,5.8,-,N/A,,Mostly Cloudy,140,2013-08-24 02:53:00
10:13 PM,75.2,68.0,78,30.01,10.0,SSE,6.9,-,N/A,,Scattered Clouds,150,2013-08-24 03:13:00
10:33 PM,73.4,68.0,83,30.01,10.0,SSE,5.8,-,N/A,,Clear,150,2013-08-24 03:33:00
10:53 PM,73.4,68.0,83,30.01,10.0,SSE,6.9,-,N/A,,Clear,150,2013-08-24 03:53:00
11:13 PM,73.4,68.0,83,30.01,10.0,SSE,5.8,-,N/A,,Clear,150,2013-08-24 04:13:00
11:33 PM,73.4,68.0,83,30.01,10.0,SSE,5.8,-,N/A,,Clear,160,2013-08-24 04:33:00
11:53 PM,71.6,68.0,88,30.02,7.0,SSE,6.9,-,N/A,,Clear,160,2013-08-24 04:53:00